Location: Quedlinburg
(51.7921°N, 11.1414°E)
Time: 21:57:54
(UTC+02:00)

SEEDS - Pass Details

Date: 16 March 2026
Orbit: 470 x 477 km, 97.8° (Epoch: 21 April)

Event Time Altitude Azimuth Distance (km) Brightness Sun altitude
Rises 04:47:18 0° 27° (NNE) 2,561 ? -16.1°
Reaches altitude 10° 04:49:52 10° 46° (NE) 1,672 ? -15.7°
Maximum altitude 04:52:28 19° 92° (E) 1,220 ? -15.4°
Drops below altitude 10° 04:55:02 10° 139° (SE) 1,656 ? -15.0°
Sets 04:57:33 0° 158° (SSE) 2,526 ? -14.6°
